OK1UDZ-5 Weather Reports


time (UTC)temp
C
wind
direction
speed
KPH
gust
KPH
rain 1hr
cm
rain 24hr
cm
rain mn
cm
humidity
%
barometer
mb
20260507204023 -17 45 0.0 0.0 0.00 0.00 0.00 1014.5
20260507203220 -17 45 0.0 0.0 0.00 0.00 0.00 1014.4
20260507202419 -17 45 0.0 0.0 0.00 0.00 0.00 1014.4
20260507201615 -17 45 0.0 0.0 0.00 0.00 0.00 1014.2
20260507200810 -17 45 0.0 0.0 0.00 0.00 0.00 1014.2
20260507195157 -17 45 0.0 0.0 0.00 0.00 0.00 1013.9
20260507194350 -17 45 0.0 0.0 0.00 0.00 0.00 1013.8
20260507193543 -17 45 0.0 0.0 0.00 0.00 0.00 1013.8
20260507192737 -17 45 0.0 0.0 0.00 0.00 0.00 1013.7
20260507191933 -17 45 0.0 0.0 0.00 0.00 0.00 1013.6
20260507191129 -17 45 0.0 0.0 0.00 0.00 0.00 1013.4
20260507190313 -17 45 0.0 0.0 0.00 0.00 0.00 1013.3
20260507185507 -17 45 0.0 0.0 0.00 0.00 0.00 1013.1
20260507184701 -17 45 0.0 0.0 0.00 0.00 0.00 1013.1
20260507183859 -17 45 0.0 0.0 0.00 0.00 0.00 1012.9
20260507183047 -17 45 0.0 0.0 0.00 0.00 0.00 1012.7
20260507182244 -17 45 0.0 0.0 0.00 0.00 0.00 1012.4
20260507181441 -17 45 0.0 0.0 0.00 0.00 0.00 1012.2
20260507180639 -17 45 0.0 0.0 0.00 0.00 0.00 1011.9
20260507175828 -17 45 0.0 0.0 0.00 0.00 0.00 1011.7
20260507175026 -17 45 0.0 0.0 0.00 0.00 0.00 1011.7
20260507174226 -17 203 0.0 0.0 0.00 0.00 0.00 1011.5
20260507173423 -17 203 0.0 0.0 0.00 0.00 0.00 1011.4
20260507172618 -17 203 0.0 0.0 0.00 0.00 0.00 1011.1
20260507171816 -17 203 0.0 0.0 0.00 0.00 0.00 1011.0
20260507171012 -17 45 0.0 0.0 0.00 0.00 0.00 1010.9
20260507170208 -17 45 0.0 0.0 0.00 0.00 0.00 1010.8
20260507165407 -17 45 0.0 0.0 0.00 0.00 0.00 1010.7
20260507164605 -17 45 0.0 0.0 0.00 0.00 0.00 1010.6
20260507163800 -17 135 0.0 0.0 0.00 0.00 0.00 1010.5
20260507162957 -17 135 0.0 0.0 0.00 0.00 0.00 1010.3
20260507162152 -17 135 0.0 0.0 0.00 0.00 0.00 1009.9
20260507161349 -17 135 0.0 0.0 0.00 0.00 0.00 1009.5
20260507160544 -17 248 0.0 0.0 0.00 0.00 0.00 1009.5
20260507155739 -17 248 0.0 0.0 0.00 0.00 0.00 1009.8
20260507154934 -17 248 0.0 0.0 0.00 0.00 0.00 1009.4
20260507154132 -17 248 0.0 0.0 0.00 0.00 0.00 1009.3
20260507153331 -17 248 0.0 0.0 0.00 0.00 0.00 1009.6
20260507152529 -17 180 0.0 0.0 0.00 0.00 0.00 1009.3
20260507151727 -17 45 0.0 0.0 0.00 0.00 0.00 1009.9
20260507150923 -17 45 0.0 0.0 0.00 0.00 0.00 1010.0
20260507150117 -17 180 0.0 0.0 0.00 0.00 0.00 1009.4
20260507145308 -17 180 0.0 0.0 0.00 0.00 0.00 1009.2
20260507144502 -17 180 0.0 0.0 0.00 0.00 0.00 1008.9
20260507143645 -17 180 0.0 0.0 0.00 0.00 0.00 1009.7
20260507142836 -17 248 0.0 0.0 0.00 0.00 0.00 1009.6
20260507142016 -17 180 0.0 0.0 0.00 0.00 0.00 1010.4
20260507141208 -17 203 0.0 0.0 0.00 0.00 0.00 1010.5
20260507140353 -17 248 0.0 0.0 0.00 0.00 0.00 1010.5
20260507135549 -17 248 0.0 0.0 0.00 0.00 0.00 1010.7
20260507134745 -17 248 0.0 0.0 0.00 0.00 0.00 1010.6
20260507133945 -17 248 0.0 0.0 0.00 0.00 0.00 1010.4
20260507133144 -17 135 0.0 0.0 0.00 0.00 0.00 1010.0
20260507132343 -17 248 0.0 0.0 0.00 0.00 0.00 1009.9
20260507131544 -17 180 0.0 0.0 0.00 0.00 0.00 1009.6
20260507130743 -17 248 0.0 0.0 0.00 0.00 0.00 1009.5
20260507125941 -17 180 0.0 0.0 0.00 0.00 0.00 1009.8
20260507125142 -17 248 0.0 0.0 0.00 0.00 0.00 1009.6
20260507124337 -17 180 0.0 0.0 0.00 0.00 0.00 1009.4
20260507123531 -17 180 0.0 0.0 0.00 0.00 0.00 1009.1
20260507122728 -17 180 0.0 0.0 0.00 0.00 0.00 1009.8
20260507121926 -17 248 0.0 0.0 0.00 0.00 0.00 1009.8
20260507121121 -17 180 0.0 0.0 0.00 0.00 0.00 1009.6
20260507120319 -17 180 0.0 0.0 0.00 0.00 0.00 1009.3
20260507115519 -17 203 0.0 0.0 0.00 0.00 0.00 1009.6
20260507114719 -17 180 0.0 0.0 0.00 0.00 0.00 1009.7
20260507113917 -17 180 0.0 0.0 0.00 0.00 0.00 1009.6
20260507113115 -17 248 0.0 0.0 0.00 0.00 0.00 1009.9
20260507112315 -17 180 0.0 0.0 0.00 0.00 0.00 1009.6
20260507111515 -17 180 0.0 0.0 0.00 0.00 0.00 1009.0
20260507110715 -17 315 0.0 0.0 0.00 0.00 0.00 1009.3
20260507105915 -17 248 0.0 0.0 0.00 0.00 0.00 1009.4
20260507105115 -17 248 0.0 0.0 0.00 0.00 0.00 1009.6
20260507104311 -17 135 0.0 4.8 0.00 0.00 0.00 1009.6
20260507103512 -17 180 0.0 0.0 0.00 0.00 0.00 1009.5
20260507102712 -17 203 0.0 0.0 0.00 0.00 0.00 1009.7
20260507101911 -17 180 0.0 0.0 0.00 0.00 0.00 1009.5
20260507101110 -17 203 0.0 0.0 0.00 0.00 0.00 1009.5
20260507100311 -17 180 0.0 0.0 0.00 0.00 0.00 1009.7
20260507095513 -17 180 0.0 0.0 0.00 0.00 0.00 1009.9
20260507094712 -17 248 0.0 0.0 0.00 0.00 0.00 1010.0
20260507093913 -17 180 0.0 0.0 0.00 0.00 0.00 1009.8
20260507093112 -17 45 0.0 0.0 0.00 0.00 0.00 1009.7
20260507092312 -17 45 0.0 0.0 0.00 0.00 0.00 1009.8
20260507091513 -17 203 0.0 0.0 0.00 0.00 0.00 1009.7
20260507090709 -17 158 0.0 0.0 0.00 0.00 0.00 1010.0
20260507085909 -17 180 0.0 0.0 0.00 0.00 0.00 1010.0
20260507085109 -17 248 0.0 0.0 0.00 0.00 0.00 1010.1
20260507084307 -17 180 0.0 0.0 0.00 0.00 0.00 1010.1
20260507083507 -17 135 0.0 0.0 0.00 0.00 0.00 1010.0
20260507082706 -17 135 0.0 0.0 0.00 0.00 0.00 1010.0
20260507081907 -17 135 0.0 0.0 0.00 0.00 0.00 1009.8
20260507081107 -17 180 0.0 0.0 0.00 0.00 0.00 1009.6
20260507080307 -17 180 0.0 0.0 0.00 0.00 0.00 1009.9
20260507075507 -17 248 0.0 0.0 0.00 0.00 0.00 1009.9
20260507074706 -17 180 0.0 0.0 0.00 0.00 0.00 1009.8
20260507073906 -17 180 0.0 0.0 0.00 0.00 0.00 1009.9
20260507073106 -17 135 0.0 0.0 0.00 0.00 0.00 1009.9
20260507072306 -17 180 0.0 0.0 0.00 0.00 0.00 1009.9
20260507071505 -17 248 0.0 0.0 0.00 0.00 0.00 1009.9
20260507070706 -17 248 0.0 0.0 0.00 0.00 0.00 1009.9
20260507065905 -17 203 0.0 0.0 0.00 0.00 0.00 1009.9
20260507065105 -17 180 0.0 0.0 0.00 0.00 0.00 1009.8
20260507064305 -17 203 0.0 0.0 0.00 0.00 0.00 1009.8
20260507063505 -17 203 0.0 0.0 0.00 0.00 0.00 1009.6
20260507062704 -17 248 0.0 0.0 0.00 0.00 0.00 1009.5
20260507061905 -17 45 0.0 0.0 0.00 0.00 0.00 1009.4
20260507061104 -17 45 0.0 0.0 0.00 0.00 0.00 1009.3
20260507060306 -17 135 0.0 0.0 0.00 0.00 0.00 1009.2
20260507055506 -17 180 0.0 0.0 0.00 0.00 0.00 1009.2
20260507054702 -17 248 0.0 0.0 0.00 0.00 0.00 1009.2
20260507053901 -17 248 0.0 0.0 0.00 0.00 0.00 1009.0
20260507053101 -17 45 0.0 0.0 0.00 0.00 0.00 1008.9
20260507052259 -17 248 0.0 0.0 0.00 0.00 0.00 1008.8
20260507051459 -17 248 0.0 0.0 0.00 0.00 0.00 1008.8
20260507050659 -17 158 0.0 0.0 0.00 0.00 0.00 1008.7
20260507045857 -17 180 0.0 0.0 0.00 0.00 0.00 1008.7
20260507045058 -17 248 0.0 0.0 0.00 0.00 0.00 1008.5
20260507044257 -17 180 0.0 0.0 0.00 0.00 0.00 1008.7
20260507043454 -17 248 0.0 0.0 0.00 0.00 0.00 1008.5
20260507042653 -17 180 0.0 0.0 0.00 0.00 0.00 1008.5
20260507041851 -17 248 0.0 0.0 0.00 0.00 0.00 1008.4
20260507041048 -17 180 0.0 0.0 0.00 0.00 0.00 1008.3
20260507040245 -17 180 0.0 0.0 0.00 0.00 0.00 1008.3
20260507035443 -17 248 0.0 0.0 0.00 0.00 0.00 1008.2
20260507034643 -17 248 0.0 0.0 0.00 0.00 0.00 1008.3
20260507033843 -17 180 0.0 0.0 0.00 0.00 0.00 1008.4
20260507033042 -17 135 0.0 0.0 0.00 0.00 0.00 1008.5
20260507032243 -17 135 0.0 0.0 0.00 0.00 0.00 1008.6
20260507031444 -17 135 0.0 0.0 0.00 0.00 0.00 1008.6
20260507030642 -17 135 0.0 0.0 0.00 0.00 0.00 1008.4
20260507025841 -17 135 0.0 0.0 0.00 0.00 0.00 1008.2
20260507025040 -17 45 0.0 0.0 0.00 0.00 0.00 1008.1
20260507024241 -17 135 0.0 0.0 0.00 0.00 0.00 1008.2
20260507023441 -17 248 0.0 0.0 0.00 0.00 0.00 1008.3
20260507022640 -17 180 0.0 0.0 0.00 0.00 0.00 1008.3
20260507021839 -17 135 0.0 0.0 0.00 0.00 0.00 1008.2
20260507021036 -17 45 0.0 0.0 0.00 0.00 0.00 1007.9
20260507020236 -17 45 0.0 0.0 0.00 0.00 0.00 1007.8
20260507015436 -17 45 0.0 0.0 0.00 0.00 0.00 1007.7
20260507014635 -17 45 0.0 0.0 0.00 0.00 0.00 1007.6
20260507013832 -17 45 0.0 0.0 0.00 0.00 0.00 1007.5
20260507013028 -17 45 0.0 0.0 0.00 0.00 0.00 1007.6
20260507012230 -17 45 0.0 0.0 0.00 0.00 0.00 1007.6
20260507011429 -17 90 0.0 0.0 0.00 0.00 0.00 1007.4
20260507010629 -17 248 0.0 0.0 0.00 0.00 0.00 1007.3
20260507005824 -17 45 0.0 0.0 0.00 0.00 0.00 1007.2
20260507005024 -17 248 0.0 0.0 0.00 0.00 0.00 1007.2
20260507004223 -17 248 0.0 0.0 0.00 0.00 0.00 1007.2
20260507003423 -17 45 0.0 0.0 0.00 0.00 0.00 1007.2
20260507002623 -17 45 0.0 0.0 0.00 0.00 0.00 1007.0
20260507001823 -17 45 0.0 0.0 0.00 0.00 0.00 1006.8
20260507001022 -17 45 0.0 0.0 0.00 0.00 0.00 1006.6
20260507000221 -17 45 0.0 0.0 0.00 0.00 0.00 1006.5
20260506235420 -17 45 0.0 0.0 0.00 0.03 0.00 1006.4
20260506234620 -17 45 0.0 0.0 0.00 0.03 0.00 1006.2
20260506233817 -17 45 0.0 0.0 0.00 0.03 0.00 1006.0
20260506233017 -17 45 0.0 0.0 0.00 0.03 0.00 1005.9
20260506232216 -17 45 0.0 0.0 0.00 0.03 0.00 1005.8
20260506231417 -17 45 0.0 0.0 0.00 0.03 0.00 1005.8
20260506230616 -17 45 0.0 0.0 0.00 0.03 0.00 1005.9
20260506225815 -17 45 0.0 0.0 0.00 0.03 0.00 1006.0
20260506225014 -17 45 0.0 0.0 0.00 0.03 0.00 1005.7
20260506224215 -17 45 0.0 0.0 0.00 0.03 0.00 1005.8
20260506223414 -17 45 0.0 0.0 0.00 0.03 0.00 1005.7
20260506222613 -17 45 0.0 0.0 0.00 0.03 0.00 1005.9
20260506221814 -17 45 0.0 1.6 0.00 0.03 0.00 1005.7
20260506221013 -17 45 0.0 0.0 0.00 0.03 0.00 1005.7
20260506220207 -17 180 0.0 0.0 0.00 0.03 0.00 1005.2
20260506215407 -17 180 0.0 1.6 0.00 0.03 0.03 1004.9
20260506214606 -17 180 0.0 0.0 0.00 0.03 0.03 1004.3
20260506213806 -17 248 0.0 0.0 0.00 0.03 0.03 1004.2
20260506213006 -17 180 0.0 0.0 0.00 0.03 0.03 1004.1
20260506212202 -17 135 0.0 0.0 0.00 0.03 0.03 1004.0
20260506211402 -17 135 0.0 0.0 0.00 0.03 0.03 1004.0
20260506210600 -17 180 0.0 0.0 0.00 0.03 0.03 1004.0
20260506205759 -17 180 0.0 0.0 0.00 0.03 0.03 1004.1
20260506204956 -17 180 0.0 0.0 0.00 0.03 0.03 1004.2
20260506204153 -17 180 0.0 0.0 0.00 0.03 0.03 1004.2